Location: Fiennes
(50.8274°N, 1.8253°E)
Time: 03:39:34
(UTC+00:00)

Cosmos 44 - Pass Details

Date: 15 May 2026
Orbit: 568 x 782 km, 65.1° (Epoch: 8 June)

Event Time Altitude Azimuth Distance (km) Brightness Sun altitude
Rises 22:31:16 0° 317° (NW) 3,278 8.0 -18.1°
Reaches altitude 10° 22:33:45 10° 313° (NW) 2,342 6.9 -18.2°
Maximum altitude 22:39:01 54° 237° (WSW) 933 3.8 -18.4°
Enters shadow 22:41:02 34° 180° (S) 1,238 4.0 -18.5°
